GW4987 Weather Reports


Display with metric or nautical units.
time (UTC)temp
F
wind
direction
speed
MPH
gust
MPH
rain 1hr
in
rain 24hr
in
rain mn
in
humidity
%
barometer
mb
20260502194055 70 128 9.0 14.0 0.00 0.00 0.00 22 1019.5
20260502193555 71 117 4.0 10.0 0.00 0.00 0.00 22 1019.6
20260502193055 70 7 8.0 13.0 0.00 0.00 0.00 22 1019.6
20260502192555 71 246 4.0 5.0 0.00 0.00 0.00 21 1019.5
20260502185056 69 15 9.0 11.0 0.00 0.00 0.00 23 1020.1
20260502184555 67 33 9.0 16.0 0.00 0.00 0.00 23 1020.1
20260502184056 70 0 6.0 14.0 0.00 0.00 0.00 22 1020.2
20260502183555 69 42 7.0 11.0 0.00 0.00 0.00 22 1020.2
20260502183013 69 68 2.0 8.0 0.00 0.00 0.00 23 1020.3
20260502182556 68 89 5.0 15.0 0.00 0.00 0.00 23 1020.2
20260502182055 69 62 11.0 13.0 0.00 0.00 0.00 23 1020.2
20260502181514 69 13 6.0 13.0 0.00 0.00 0.00 24 1020.5
20260502164055 65 71 10.0 18.0 0.00 0.00 0.00 27 1020.6
20260502163555 65 102 7.0 13.0 0.00 0.00 0.00 27 1020.6
20260502163014 64 58 10.0 16.0 0.00 0.00 0.00 28 1020.7
20260502162555 65 99 7.0 9.0 0.00 0.00 0.00 28 1020.4
20260502162055 64 96 7.0 16.0 0.00 0.00 0.00 28 1020.5
20260502152056 61 34 7.0 12.0 0.00 0.00 0.00 28 1020.2
20260502151556 61 105 7.0 9.0 0.00 0.00 0.00 28 1020.2
20260502151014 61 38 6.0 8.0 0.00 0.00 0.00 27 1020.2
20260502150556 61 8 3.0 8.0 0.00 0.00 0.00 28 1020.2
20260502130556 43 273 3.0 5.0 0.00 0.00 0.00 45 1019.3
20260502123555 41 264 4.0 5.0 0.00 0.00 0.00 48 1019.0
20260502123055 41 262 4.0 5.0 0.00 0.00 0.00 48 1019.2
20260502122514 41 256 4.0 4.0 0.00 0.00 0.00 48 1019.0
20260502122014 42 263 4.0 5.0 0.00 0.00 0.00 46 1018.9
20260502121556 42 264 4.0 5.0 0.00 0.00 0.00 46 1019.0
20260502121014 41 267 4.0 5.0 0.00 0.00 0.00 48 1018.8
20260502120555 42 263 4.0 4.0 0.00 0.00 0.00 48 1018.9
20260502115556 42 273 3.0 3.0 0.00 0.00 0.00 47 1018.8
20260502115014 42 253 4.0 5.0 0.00 0.00 0.00 47 1018.8
20260502114555 41 264 4.0 5.0 0.00 0.00 0.00 49 1018.8
20260502114055 41 263 5.0 5.0 0.00 0.00 0.00 49 1018.7
20260502113556 41 267 5.0 6.0 0.00 0.00 0.00 49 1018.9
20260502113014 42 261 5.0 5.0 0.00 0.00 0.00 48 1018.8
20260502112555 43 264 5.0 6.0 0.00 0.00 0.00 47 1018.9
20260502112014 42 277 5.0 5.0 0.00 0.00 0.00 49 1018.9
20260502111556 42 289 4.0 5.0 0.00 0.00 0.00 48 1018.7
20260502111056 42 266 2.0 5.0 0.00 0.00 0.00 48 1019.0
20260502110556 42 268 4.0 6.0 0.00 0.00 0.00 48 1018.8
20260502110014 42 279 5.0 6.0 0.00 0.00 0.00 48 1018.8
20260502105555 42 268 5.0 5.0 0.00 0.00 0.00 48 1019.0
20260502105056 42 258 5.0 5.0 0.00 0.00 0.00 48 1018.9
20260502104514 42 268 5.0 5.0 0.00 0.00 0.00 48 1018.8
20260502104014 42 272 4.0 5.0 0.00 0.00 0.00 47 1019.0
20260502103556 43 262 4.0 4.0 0.00 0.00 0.00 46 1018.8
20260502101555 43 265 4.0 5.0 0.00 0.00 0.00 46 1018.9
20260502101013 42 261 3.0 4.0 0.00 0.00 0.00 47 1019.0
20260502100556 43 266 3.0 4.0 0.00 0.00 0.00 46 1018.8
20260502071015 48 267 3.0 3.0 0.00 0.00 0.00 36 1019.3
20260502070517 48 266 2.0 3.0 0.00 0.00 0.00 35 1019.2
20260502070013 47 263 3.0 3.0 0.00 0.00 0.00 36 1019.2
20260502065555 46 267 4.0 5.0 0.00 0.00 0.00 37 1019.2
20260502065015 47 264 3.0 5.0 0.00 0.00 0.00 37 1019.0
20260502064555 47 248 3.0 4.0 0.00 0.00 0.00 35 1019.2
20260502064056 47 277 2.0 5.0 0.00 0.00 0.00 37 1019.2
20260502063556 48 259 3.0 3.0 0.00 0.00 0.00 34 1019.0
20260502061055 48 256 3.0 3.0 0.00 0.00 0.00 34 1018.9
20260502060555 49 262 3.0 5.0 0.00 0.00 0.00 33 1018.9
20260502060014 49 252 3.0 3.0 0.00 0.00 0.00 34 1018.9
20260502055555 50 257 3.0 3.0 0.00 0.00 0.00 32 1019.0
20260502055056 49 294 3.0 4.0 0.00 0.00 0.00 33 1018.8
20260502054514 49 281 2.0 4.0 0.00 0.00 0.00 34 1018.9
20260502054014 50 219 2.0 3.0 0.00 0.00 0.00 32 1018.7
20260502053556 50 263 2.0 3.0 0.00 0.00 0.00 32 1018.9
20260502053015 51 261 0.0 3.0 0.00 0.00 0.00 31 1018.8
20260502052555 51 315 0.0 3.0 0.00 0.00 0.00 31 1018.8
20260502052055 51 243 2.0 3.0 0.00 0.00 0.00 31 1018.7
20260502051555 52 161 0.0 4.0 0.00 0.00 0.00 30 1018.8
20260502051014 52 100 2.0 2.0 0.00 0.00 0.00 30 1018.8
20260502050555 53 241 0.0 4.0 0.00 0.00 0.00 29 1018.6
20260502050055 53 266 4.0 6.0 0.00 0.00 0.00 29 1018.5
20260502044555 55 268 4.0 4.0 0.00 0.00 0.00 27 1018.3
20260502044055 56 259 4.0 5.0 0.00 0.00 0.00 27 1018.3
20260502043556 56 260 4.0 6.0 0.00 0.00 0.00 27 1018.3
20260502043055 56 282 2.0 4.0 0.00 0.00 0.00 27 1018.4
20260502042555 57 279 0.0 3.0 0.00 0.00 0.00 26 1018.2
20260502040514 59 299 5.0 6.0 0.00 0.00 0.00 24 1018.0
20260502040015 59 304 8.0 9.0 0.00 0.00 0.00 24 1017.9
20260502035556 60 338 3.0 7.0 0.00 0.00 0.00 23 1018.0
20260502035014 60 292 4.0 9.0 0.00 0.00 0.00 23 1018.0
20260502034555 60 294 5.0 9.0 0.00 0.00 0.00 23 1017.9
20260502034056 60 284 4.0 7.0 0.00 0.00 0.00 23 1017.8
20260502033555 60 3 4.0 9.0 0.00 0.00 0.00 23 1017.7
20260502033014 61 313 2.0 9.0 0.00 0.00 0.00 23 1017.7
20260502032555 60 335 5.0 11.0 0.00 0.00 0.00 23 1017.5
20260502032055 61 354 5.0 12.0 0.00 0.00 0.00 23 1017.6
20260502031515 61 74 3.0 10.0 0.00 0.00 0.00 23 1017.5
20260502031014 61 6 6.0 11.0 0.00 0.00 0.00 23 1017.4
20260502030555 61 0 7.0 9.0 0.00 0.00 0.00 23 1017.2
20260502030015 62 138 3.0 7.0 0.00 0.00 0.00 23 1017.3
20260502025555 62 350 7.0 9.0 0.00 0.00 0.00 23 1017.2
20260502025055 62 313 3.0 13.0 0.00 0.00 0.00 22 1017.3
20260502024556 62 296 12.0 14.0 0.00 0.00 0.00 22 1017.0
20260502024015 63 3 4.0 11.0 0.00 0.00 0.00 22 1017.0
20260502023555 64 3 10.0 18.0 0.00 0.00 0.00 20 1016.8
20260502023056 64 281 9.0 10.0 0.00 0.00 0.00 19 1016.5
20260502021014 65 283 7.0 18.0 0.00 0.00 0.00 19 1016.2
20260502020555 65 320 10.0 13.0 0.00 0.00 0.00 19 1016.1
20260502020055 66 329 3.0 5.0 0.00 0.00 0.00 19 1016.1
20260502015555 68 280 2.0 4.0 0.00 0.00 0.00 19 1016.2
20260502015015 68 303 3.0 4.0 0.00 0.00 0.00 18 1016.0
20260502014555 68 285 2.0 4.0 0.00 0.00 0.00 19 1015.9
20260502014056 68 325 3.0 4.0 0.00 0.00 0.00 18 1016.1
20260502013556 69 325 3.0 3.0 0.00 0.00 0.00 18 1015.9
20260502013014 68 9 2.0 5.0 0.00 0.00 0.00 18 1015.9
20260502012555 67 321 2.0 4.0 0.00 0.00 0.00 18 1015.9
20260502012055 68 344 4.0 5.0 0.00 0.00 0.00 18 1015.9
20260502011555 66 353 5.0 5.0 0.00 0.00 0.00 19 1015.9
20260502011055 66 309 4.0 7.0 0.00 0.00 0.00 19 1015.9
20260502010555 66 331 4.0 9.0 0.00 0.00 0.00 19 1015.7
20260502010014 67 300 2.0 6.0 0.00 0.00 0.00 18 1015.8
20260502005555 67 13 0.0 9.0 0.00 0.00 0.00 19 1015.9
20260502005056 67 0 6.0 7.0 0.00 0.00 0.00 18 1015.9
20260502004514 67 338 6.0 7.0 0.00 0.00 0.00 18 1015.7
20260502004015 68 269 5.0 7.0 0.00 0.00 0.00 18 1015.8
20260502003555 68 12 3.0 9.0 0.00 0.00 0.00 18 1015.7
20260502003014 69 353 2.0 6.0 0.00 0.00 0.00 18 1015.7
20260502002555 69 242 4.0 5.0 0.00 0.00 0.00 17 1015.8
20260502002055 68 249 5.0 11.0 0.00 0.00 0.00 18 1015.6
20260502000555 68 261 8.0 17.0 0.00 0.00 0.00 18 1015.7
20260502000055 68 263 17.0 21.0 0.00 0.00 0.00 18 1015.6
20260501235556 69 327 11.0 17.0 0.00 0.00 0.00 17 1015.7
20260501233556 69 231 5.0 30.0 0.00 0.00 0.00 18 1015.6
20260501233055 70 321 5.0 7.0 0.00 0.00 0.00 17 1015.5
20260501232556 69 52 3.0 10.0 0.00 0.00 0.00 18 1015.7
20260501232015 68 298 8.0 10.0 0.00 0.00 0.00 18 1015.8
20260501231555 68 1 4.0 9.0 0.00 0.00 0.00 18 1015.9
20260501231055 69 54 0.0 7.0 0.00 0.00 0.00 17 1015.8
20260501230515 70 78 3.0 5.0 0.00 0.00 0.00 17 1015.6
20260501230015 69 0 3.0 6.0 0.00 0.00 0.00 18 1015.7
20260501225555 68 6 6.0 7.0 0.00 0.00 0.00 19 1015.8
20260501225015 67 41 0.0 4.0 0.00 0.00 0.00 19 1015.9
20260501224555 67 326 3.0 4.0 0.00 0.00 0.00 19 1015.9
20260501224055 67 254 6.0 7.0 0.00 0.00 0.00 19 1015.9
20260501223555 68 246 2.0 6.0 0.00 0.00 0.00 20 1015.9
20260501223015 67 340 2.0 7.0 0.00 0.00 0.00 19 1015.9
20260501222556 67 5 5.0 9.0 0.00 0.00 0.00 19 1016.0
20260501222055 68 332 5.0 5.0 0.00 0.00 0.00 19 1015.9
20260501221515 67 296 3.0 5.0 0.00 0.00 0.00 19 1015.9
20260501221015 67 45 2.0 7.0 0.00 0.00 0.00 19 1015.9
20260501220555 67 289 4.0 7.0 0.00 0.00 0.00 19 1016.1
20260501215556 67 277 4.0 10.0 0.00 0.00 0.00 20 1016.1
20260501215056 67 275 7.0 12.0 0.00 0.00 0.00 20 1016.3
20260501214556 68 264 10.0 17.0 0.00 0.00 0.00 19 1016.1
20260501214015 70 110 3.0 8.0 0.00 0.00 0.00 18 1016.1
20260501213556 67 247 5.0 22.0 0.00 0.00 0.00 20 1016.3
20260501213056 67 205 6.0 9.0 0.00 0.00 0.00 20 1016.2
20260501211014 68 257 4.0 5.0 0.00 0.00 0.00 18 1016.5
20260501210555 67 117 3.0 7.0 0.00 0.00 0.00 18 1016.5
20260501210056 66 174 3.0 12.0 0.00 0.00 0.00 19 1016.5
20260501205555 66 217 7.0 13.0 0.00 0.00 0.00 19 1016.7
20260501205014 68 207 10.0 21.0 0.00 0.00 0.00 18 1016.5
20260501204556 69 232 8.0 15.0 0.00 0.00 0.00 18 1016.7
20260501204056 69 233 9.0 15.0 0.00 0.00 0.00 18 1016.7
20260501203515 68 239 8.0 21.0 0.00 0.00 0.00 18 1016.6
20260501203055 69 295 4.0 11.0 0.00 0.00 0.00 17 1016.7
20260501202556 71 242 6.0 6.0 0.00 0.00 0.00 16 1016.7
20260501202056 68 320 2.0 8.0 0.00 0.00 0.00 17 1016.7
20260501201555 69 235 7.0 12.0 0.00 0.00 0.00 17 1016.7
20260501201055 70 9 11.0 12.0 0.00 0.00 0.00 16 1016.7
20260501200555 68 258 5.0 6.0 0.00 0.00 0.00 18 1016.7
20260501200014 68 346 4.0 6.0 0.00 0.00 0.00 17 1016.7
20260501195555 69 116 3.0 7.0 0.00 0.00 0.00 16 1016.7
20260501195056 67 0 2.0 9.0 0.00 0.00 0.00 18 1016.8